STARLINK-2590 (48397 NORAD) Tracking and Keplerian Element Data

This shows tracking and keplerian element data for the satellite.

Feedback or suggestion? Click here.




ElementValue
Catalog48397
NameSTARLINK-2590
Epoch Orbit1476
Epoch Day215.25002315
Epoch Year2021
RAAN320.9065
Inclination53.05
Eccentricity0.0001453
Argument of Perigee71.9577
Mean Anonmoly290.479
Mean Motion15.06492185
Decay Rate-0.00152364
L11 48397U 21038AW 21215.25002315 -.00152364 00000-0 -10405-1 0 9998
L22 48397 53.0500 320.9065 0001453 71.9577 290.4790 15.06492185 14760

Live tracking and technical data element details for STARLINK-2590 (NORAD 48397). STARLINK-2590 can be tracked NOW for your location showing map with azimuth and elevation plus other details from your city location.

Track the satellite on the map from your city or location and see movement details for azimuth, elevation, latitude, longitude, range, height, and movement on the map or in text.







IsCatalogInMostPopularTable: catalog: 48397, numindb: 29
Update: records affected: 1



GetName: 48397 STARLINK-2590

Hit Count: updated at: Wed, 04 Aug 2021 00:49:25 GMT